Location: Unspecified
(0.0000°N, 0.0000°E)
Time: 01:24:43
(UTC+00:00)

Courier 1B Rocket - Pass Details

Date: 19 November 2019
Orbit: 920 x 1202 km, 28.2° (Epoch: 10 December)

Event Time Altitude Azimuth Distance (km) Brightness Sun altitude
Rises 12:28:08 0° 264° (W) 3,604 8.1 67.9°
Reaches altitude 10° 12:31:04 10° 275° (W) 2,690 7.6 67.5°
Maximum altitude 12:36:36 29° 333° (NNW) 1,736 6.6 66.8°
Drops below altitude 10° 12:42:27 10° 32° (NNE) 2,848 7.3 66.0°
Sets 12:45:40 0° 42° (NE) 3,853 7.9 65.6°
